This demonstration page uses our WeatherBlox Daily Observations layout. Learn more.

Left ArrowRight Arrow

Hourly Observations for December 22, 2017

Temp ( °F °C ) Dew Point ( °F °C ) Humidity (%) Winds ( mph kmh ) Pressure ( in mb ) Visibility ( mi km ) Precip ( " mm )
12:02 am 00:02 Cloudy with Light Rain 53 11.7 53 11.7 100 100 VRB 3 6 30.21 1023 8 13 0.00 0.03
12:53 am 00:53 Cloudy with Light Rain 52 11.1 52 11.1 100 100 E 3 6 30.14 1021 10 16 0.00 0.03
1:50 am 01:50 Cloudy with Light Rain 52 11 52 11 100 100 ESE 6 9 30.18 1022 10 16 0.00 0.03
1:53 am 01:53 Cloudy with Light Rain 52 11.1 52 11.1 100 100 ESE 7 11 30.14 1021 10 16 0.00 0.03
2:53 am 02:53 Cloudy with Rain 52 11.1 52 11.1 100 100 SSE 5 7 30.16 1021 10 16 0.00 0.00
3:30 am 03:30 Cloudy with Rain 52 11.1 52 11.1 100 100 Calm 30.18 1022 10 16 0.00 0.00
3:53 am 03:53 Cloudy with Rain 52 11.1 52 11.1 100 100 Calm 30.16 1021 10 16 0.00 0.00
4:53 am 04:53 Cloudy with Light Rain 52 11.1 52 11.1 100 100 SSE 3 6 30.17 1022 10 16 0.00 0.00
5:53 am 05:53 Cloudy with Light Rain 52 11.1 52 11.1 100 100 E 3 6 30.18 1022 4 6 0.00 0.00
6:53 am 06:53 Cloudy with Light Rain 52 11.1 52 11.1 100 100 SE 6 9 30.19 1022 6 10 0.00 0.00
7:53 am 07:53 Cloudy with Rain 52 11.1 51 10.6 97 97 SE 9 15 30.19 1023 10 16 0.00 0.00
8:53 am 08:53 Cloudy 52 11.1 51 10.6 97 97 ESE 7 11 30.20 1023 10 16 0.08 2.03
9:53 am 09:53 Cloudy with Light Rain 53 11.7 51 10.6 93 93 SE 5 7 30.22 1023 10 16 0.00 0.03
10:53 am 10:53 Cloudy with Light Rain 53 11.7 52 11.1 96 96 VRB 5 7 30.22 1023 10 16 0.00 0.03
11:53 am 11:53 Cloudy with Light Rain 54 12.2 52 11.1 93 93 Calm 30.20 1023 10 16 0.00 0.03
12:49 pm 12:49 Cloudy 55 13 54 12 94 94 SE 8 13 30.21 1023 10 16 0.00 0.03
12:53 pm 12:53 Cloudy 56 13.3 53 11.7 90 90 SE 8 13 30.17 1022 10 16 0.00 0.03
1:53 pm 13:53 Cloudy 56 13.3 53 11.7 90 90 E 6 9 30.14 1021 10 16 0.00 0.03
2:53 pm 14:53 Cloudy 56 13.3 54 12.2 93 93 ESE 5 7 30.15 1021 10 16 0.00 0.03
3:53 pm 15:53 Cloudy 56 13.3 54 12.2 93 93 SE 6 9 30.14 1021 10 16 0.00 0.00
4:53 pm 16:53 Cloudy 55 12.8 55 12.8 100 100 VRB 5 7 30.13 1020 8 13 0.00 0.03
5:53 pm 17:53 Cloudy with Light Rain 56 13.3 55 12.8 97 97 Calm 30.14 1021 10 16 0.00 0.03
6:53 pm 18:53 Cloudy with Light Rain 56 13.3 55 12.8 97 97 Calm 30.14 1021 7 11 0.00 0.03
7:53 pm 19:53 Cloudy 56 13.3 56 13.3 100 100 S 3 6 30.14 1021 8 13 0.00 0.03
8:53 pm 20:53 Cloudy 56 13.3 56 13.3 100 100 Calm 30.12 1020 7 11 0.00 0.00
9:05 pm 21:05 Cloudy with Mist and Fog 56 13.3 56 13.3 100 100 Calm 30.12 1020 6 10 0.00 0.00
9:28 pm 21:28 Cloudy with Light Rain 56 13.3 56 13.3 100 100 Calm 30.12 1020 7 11 0.00 0.03
9:53 pm 21:53 Cloudy 58 14.4 57 13.9 97 97 SSE 3 6 30.11 1020 10 16 0.00 0.03
10:53 pm 22:53 Cloudy 60 15.6 57 13.9 90 90 S 7 11 30.11 1020 10 16 0.00 0.00
11:53 pm 23:53 Cloudy 59 15 57 13.9 93 93 S 5 7 30.10 1019 10 16 0.00 0.03

Powered by AerisWeather